Location: Oshawa
(43.9000°N, 78.8670°W)
Time: 04:54:46
(UTC-04:00)

Cosmos 1500 - Visible Passes

Search period start: 07 July 2015 00:00
Search period end: 17 July 2015 00:00
Orbit: 509 x 533 km, 82.5° (Epoch: 06 July)

Date Brightness Start Highest point End Pass type
(mag) Time Alt. Az. Time Alt. Az. Time Alt. Az.
07 Jul 6.1 03:05:07 10° E 03:05:33 10° E 03:06:13 10° ENE visible
07 Jul 3.4 04:37:28 11° SSW 04:40:57 55° W 04:44:41 10° N visible
08 Jul 3.2 04:24:30 15° SSW 04:27:33 65° W 04:31:21 10° N visible
09 Jul 3.1 04:11:31 19° SSW 04:14:10 77° W 04:17:59 10° N visible
10 Jul 3.1 03:58:30 23° S 04:00:46 90° W 04:04:36 10° N visible
11 Jul 3.2 03:45:28 28° S 03:47:22 77° E 03:51:12 10° N visible
12 Jul 3.4 03:32:24 32° SSE 03:33:59 65° E 03:37:47 10° NNE visible
13 Jul 3.6 03:19:19 35° SSE 03:20:35 55° E 03:24:20 10° NNE visible
13 Jul 5.5 04:55:40 10° W 04:56:54 11° WNW 04:57:56 10° NW visible
14 Jul 3.9 03:06:13 37° SE 03:07:12 46° E 03:10:52 10° NNE visible
14 Jul 5.4 04:41:33 10° W 04:43:25 13° WNW 04:45:05 10° NW visible
15 Jul 4.1 02:53:05 35° ESE 02:53:48 39° E 02:57:24 10° NNE visible
15 Jul 5.3 04:28:13 12° W 04:29:55 15° WNW 04:32:03 10° NW visible
16 Jul 4.3 02:39:56 32° ESE 02:40:24 34° E 02:43:54 10° NNE visible
16 Jul 5.1 04:15:04 15° W 04:16:25 17° WNW 04:18:54 10° NNW visible
